Regional Weather Roundup
Issued by NWS Green Bay, WI

Home | Current Version | Previous Version | Graphics & Text | Print | Product List | Glossary Off
Versions: 1 2 3 4 5 6 7 8 9 10 11 12 13 14 15 16 17 18 19 20 21 22 23 24 25 26 27 28 29 30 31 32 33 34 35 36 37 38 39 40 41 42 43 44 45 46 47 48 49 50

000
ASUS43 KGRB 300501
RWRGRB

NORTH-CENTRAL AND NORTHEAST WISCONSIN REGIONAL WEATHER ROUNDUP
NATIONAL WEATHER SERVICE GREEN BAY WI
1200 AM CDT SAT JUL 30 2016

WIZ005-009-010>012-018-019-300600-
NORTH CENTRAL WISCONSIN

CITY           SKY/WX    TMP DP  RH WIND       PRES   REMARKS
IRONWOOD       MOCLDY    59  54  82 E7        30.06S
MANITOWISH WTR CLEAR     58  57  96 CALM      30.08S
ARBOR VITAE    NOT AVBL
EAGLE RIVER    NOT AVBL
LAND O LAKES   NOT AVBL
RHINELANDER    CLEAR     58  56  93 CALM      30.09R
PHILLIPS       PTCLDY    59  59  97 CALM      30.06S
ANTIGO         NOT AVBL
TOMAHAWK         N/A     55  54  95 CALM      30.08S FOG
MERRILL        CLEAR     57  57 100 CALM      30.07F FOG
$$

WIZ013-073-300600-
NORTHEAST WISCONSIN

CITY           SKY/WX    TMP DP  RH WIND       PRES   REMARKS
IRON MOUNTAIN  CLEAR     56  52  86 CALM      30.08R
MARINETTE      PTCLDY   N/A N/A N/A NE6       30.05S
$$

WIZ017-030-035>037-045-300600-
CENTRAL WISCONSIN

CITY           SKY/WX    TMP DP  RH WIND       PRES   REMARKS
MEDFORD        NOT AVBL
WAUSAU         CLEAR     61  59  93 CALM      30.05S
MOSINEE        CLEAR     59  55  88 NE5       30.06S
MARSHFIELD     CLEAR     63  58  83 E5        30.05R
WISC RAPIDS    CLEAR     63  58  83 E3        30.05S
STEVENS POINT  NOT AVBL
WAUPACA        NOT AVBL
SHAWANO        NOT AVBL
CLINTONVILLE   CLOUDY    64  55  72 CALM      30.03F
WAUTOMA        CLOUDY    64  62  93 CALM      30.03S
$$

WIZ038-039-048-051-300600-
FOX VALLEY

CITY           SKY/WX    TMP DP  RH WIND       PRES   REMARKS
NWS GREEN BAY  MOCLDY    65  58  78 NE7       30.03S
APPLETON       CLOUDY    66  50  55 NE7       30.01S
OSHKOSH        CLOUDY    70  55  59 E9        30.01F
FOND DU LAC    MOCLDY    68  55  63 E3        30.01F
$$

WIZ022-050-052-300600-
EAST CENTRAL WISCONSIN

CITY           SKY/WX    TMP DP  RH WIND       PRES   REMARKS
EPHRAIM        FAIR      64  58  80 NE3       30.04S
WASHINGTON ISL NOT AVBL
STURGEON BAY   CLEAR     65  58  78 N3        30.04F
MANITOWOC      NOT AVBL
SHEBOYGAN      MOCLDY    65  60  84 N5        30.01S
$$

LMZ563-521-522-541>543-300600-
LAKESHORE

STATION/POSITION TIME  TEMP    WIND        PRES    VSBY  WAVE
                       AIR SEA DIR/SP/G                  HT/PER
                 (UTC) (F)     (DEG/KT/KT) (MB)    (MI)  (FT/S)
SHEBOYGAN LKSHOR 0400   66     360/ 10/ 11 1016.2F
KEWAUNEE LKSHORE 0400   67      20/  4/  6 1016.3F
NORTHPORT PIER   0440   71      70/ 10/ 12 1017.3F
N MID LAKE BUOY  0350   70 70   80/ 10/ 12 1016.8F         1/ 3
S GREEN BAY BUOY 0430   69 70   60/ 12/ 14 1016.2F
SISTER BAY LKSHO 0421   66     100/  1/  5   N/A
CHAMBERS ISLAND  0400   70      40/  6/ 10 1017.3S
MENOMINEE LKSHOR 0400   71      40/ 11/ 12 1016.4F
$$




USA.gov is the U.S. government's official web portal to all federal, state and local government web resources and services.